Погода Ерофей Павлович

Погода Ерофей Павлович : погода сейчас, прогноз погоды и архив. Всё, что Вы хотите узнать о погоде Ерофей Павлович!

Хотите узнать прогноз погоды Ерофей Павлович? Тогда Вам сюда: Погода Ерофей Павлович

Поиск расширенной информации на нашем сайте:

Другие новости

Новости СМИ2

Главная страница сайта

Новости сайта

03.07.2017

Напоминаем, что на нашем специализированном сайте Метеоцентр.Азия вы можете получить высокодетализированные автоматические прогнозы погоды по пунктам России, СНГ и мира в авиационном формате (включающие направление и скорость ветра, видимость, явления погоды, количество и форму облачности, нижнюю и верхнюю границу облачности).

Рекомендуем: купить квартиру в Челябинске

Погода Ерофей Павлович - сегодня

Время (UTC), дата Ветер
(°,м/с) 
Видим.   Явления Облачность Т
(°С)
Тd
(°С)
f(%) Тe
(°С)
Pmin
(гПа)
dP
(гПа)
Po
(мм)
O2
(г/м3)
Тmin Tmax R s Состояние
почвы
00 18.02.18 360 (С) 20000 м    8/0 верхняя 
[Ci]
-29 -33 68 -30  1028.1  0.8  717  325  -31      18  равномерный
сухой снег
100% 
03 18.02.18 270 (З) 20000 м    10/0 верхняя 
[Cs]
-16.5 -25.2 47 -17  1024  -0.5  717  309           
06 18.02.18 010 (С) 20000 м    4/1 600 м верхняя 
[Cu hum|Ci sp]
-12.1 -25.1 33 -14  1021.9  -0.9  716  303           
09 18.02.18 340 (С) 20000 м    9/3 600 м кучево-дожд., средняя, верхняя 
[Cb cap|Ac cast|Ci]
-14.1 -26 36 -16  1022.3  -0.1  716  306           
15 18.02.18 320 (СЗ) н/о    ясно 
-23.7 -28.1 67 -24  1024.8  -0.4  716  318           
18 18.02.18 330 (СЗ) н/о  слаб. снег  10/0 верхняя 
[Cs]
-22.9 -26.6 72 -23  1024.4  -0.1  716  317           
21 18.02.18 340 (С) н/о  слаб. снег  10/0 верхняя 
[Cs]
-21.9 -26.4 67 -22  1024.4  0.3  716  315           
00 19.02.18 тихо ()   20000 м  {снег}  10/0 средняя, верхняя 
[Ac lent|Ci fib]
-26.2 -30 70 -26  1026.5  0.7  717  321  -27    0.0  18  равномерный
сухой снег
100% 
03 19.02.18 300 (СЗ) 20000 м  позёмок  10/3 600 м верхняя 
[Sc|Cs]
-17.6 -26.5 46 -23  1023.9  -0.1  716  310           
06 19.02.18 340 (С) 20000 м    10/3 600 м средняя, верхняя 
[Sc diur, vesp|Ac trans|Ci]
-15.3 -27.4 35 -20  1022.5  -0.7  716  307           
09 19.02.18 330 (СЗ) 3{10}  20000 м    10/4 600 м верхняя 
[Sc diur, vesp|Cs]
-15.9 -28.4 33 -20  1023  0.3  716  308           
12 19.02.18 тихо ()   н/о    ясно 
-23.7 -30 56 -24  1025.6  0.4  716  318    -15.1       
15 19.02.18 310 (СЗ) н/о    ясно 
-25.5 -30.1 65 -26  1025.3  -0.8  716  320           
18 19.02.18 340 (С) н/о    ясно 
-29.8 -33.8 68 -31  1026.4  -0.2  716  326           
21 19.02.18 тихо ()   н/о    ясно 
-32.6 -37.1 64 -33  1026.7  -0.5  715  329           
00 20.02.18 280 (З) 20000 м    1/0 верхняя 
[Ci fib]
-31.8 -36.1 66 -33  1026.6  0.2  716  328  -33.8      18  равномерный
сухой снег
100% 
03 20.02.18 210 (ЮЗ) 20000 м    ясно 
-18.3 -27.8 43 -19  1022.1  -0.6  715  310           
06 20.02.18 220 (ЮЗ) 20000 м    4/1 1000 м верхняя 
[Sc diur, vesp|Ci fib]
-13.1 -26.6 31 -17  1018.5  -2  714  304           
09 20.02.18 260 (З) 20000 м    4/0 верхняя 
[Ci fib]
-13.4 -28.2 28 -16  1018.2  -0.3  713  304           
15 20.02.18 340 (С) н/о    6/0 верхняя 
[Ci]
-26.3 -32.2 57 -27  1020.7  -1.2  713  319           
18 20.02.18 тихо ()   н/о    4/0 верхняя 
[Ci]
-29.6 -34.3 64 -30  1020.7  -0.9  712  324           
21 20.02.18 200 (Ю) н/о    10/0 верхняя 
[Ci]
-29.3 -34.1 63 -30  1019.7  -0.8  711  323           
00 21.02.18 340 (С) 20000 м    10/0 средняя, верхняя 
[Ac As|Ci]
-25.6 -31.1 60 -26  1018.5  -0.1  711  318  -30.4      18  равномерный
сухой снег
100% 
03 21.02.18 190 (Ю) 20000 м    1/0 верхняя 
[Ci fib]
-15.7 -27.3 36 -16  1015.7  711  306           
06 21.02.18 280 (З) 20000 м    10/6 600 м кучево-дожд., верхняя 
[Cb cap|Ci]
-13.1 -26.4 32 -15  1013.9  -1.1  710  302           
Время (UTC), дата Ветер
(°,м/с) 
Видим.   Явления Облачность Т
(°С)
Тd
(°С)
f(%) Тe
(°С)
Pmin
(гПа)
dP
(гПа)
Po
(мм)
O2
(г/м3)
Тmin Tmax R s Состояние
почвы

Для получения пояснительной информации подведите курсор к названию столбца.

ПОГОДА Ерофей Павлович - архив

Всё, что Вы хотите узнать о погоде Ерофей Павлович - удобно и подробно!

Выберите нужную дату (начиная с 1 января 2015* года) и нажмите кнопку "Найти".
Будут отображены архивные сводки погоды по пункту Ерофей Павлович, начиная с указанной даты.


Отображать данные в формате CSV (для использования в таблицах Excel)


Внимание! Наш архив погоды предназначен исключительно для личного некоммерческого использования в познавательных целях. Если Вам необходимы официальные справки о состоянии погоды (для производственных, юридических, коммерческих и т.п. целей), обращайтесь в органы Росгидромета.

*Примечание: данная дата относится к архиву по метеостанциям СССР (Россия, СНГ, Балтия).
Архив по метеостанциям Зарубежной Европы и Азии (кроме Китая) хранится 10 дней, по другим регионам земного шара (Китай, Африка, Америка, Австралия, Океания) - 1 день.

Ерофей Павлович - район местоположения метеостанции


Название, широта, долгота, высота метеостанции:
Ерофей Павлович 54°ш. 121.9°д. 522 м над ур. моря [Российская Федерация]

Дополнительная информация

В oтличие oт бoльшинства пoгoдных сайтoв мы публикуем пoдрoбную метеoинфoрмацию в детальнoм прoфессиoнальнoм фoрмате.

Характеристики температуры и влажнoсти вoздуха измеряются на высoте 2 м в тени вдали oт зданий и деревьев.
Скoрoсть ветра измеряется на высoте 10 м (на урoвне рoста челoвека скoрoсть ветра ниже в 1.5-2 раза). Если метеoстанция нахoдится в гoрoде или в лесу, тo скoрoсть ветра занижена на 2-4 м/с пo сравнению с oткрытым местoм. Скoрoсть ветра над акватoриями крупных рек и oзёр, а также на вершинах хoлмoв на 2-5 м/с выше, чем в oбычных услoвиях.
Атмoсфернoе давление в разных тoчках местнoсти мoжет значительнo oтличаться oт давления на метеoстанции, в зависимoсти oт услoвий рельефа (при пoдъёме на 10 м давление пoнижается примернo на 1 мм рт.ст.).